Powrót do katalogu

COSMOS 546

AktywnyNawigacjaVLEO
NORAD 6350·PAYLOAD·🇷🇺 Russia

Wystrzelony Jan 26, 1973 z Kapustin Yar

Loading…

Następne Przeloty (najbliższe 24 godziny)

TLE

ŚwieżeSource: Space-Track

Epoka: Sep 13, 2026, 22:13 UTC

1  6350U 73005A   26256.92577425  .00001588  00000-0  65217-4 0  9998
2  6350  50.6345  86.0833 0014635 277.8965  82.0341 15.30443579956818

Śledź COSMOS 546 w czasie rzeczywistym z AllMySat

Download on the App Store